Time,TemperatureF,DewpointF,PressureIn,WindDirection,WindDirectionDegrees,WindSpeedMPH,WindSpeedGustMPH,Humidity,HourlyPrecipIn,Conditions,Clouds,dailyrainin,SolarRadiationWatts/m^2,SoftwareType,DateUTC
2013-05-02 00:00:00,47.2,45.3,30.42,NE,50,1.0,1.0,93,0.00,,,0.00,0,Wunderground v.1.15,2013-05-02 04:00:00,
2013-05-02 00:02:00,47.2,45.3,30.42,NE,50,1.0,1.0,93,0.00,,,0.00,0,Wunderground v.1.15,2013-05-02 04:02:00,
2013-05-02 00:06:00,47.2,45.3,30.42,NE,50,0.0,1.0,93,0.00,,,0.00,0,Wunderground v.1.15,2013-05-02 04:06:00,
2013-05-02 00:08:00,47.2,45.3,30.42,NE,50,0.0,1.0,93,0.00,,,0.00,0,Wunderground v.1.15,2013-05-02 04:08:00,
2013-05-02 00:10:00,47.2,45.3,30.41,NE,50,0.0,0.0,93,0.00,,,0.00,0,Wunderground v.1.15,2013-05-02 04:10:00,
2013-05-02 00:16:00,47.3,45.4,30.42,NE,44,1.0,2.0,93,0.00,,,0.00,0,Wunderground v.1.15,2013-05-02 04:16:00,
2013-05-02 00:22:00,47.5,45.6,30.42,NE,46,2.0,5.0,93,0.00,,,0.00,0,Wunderground v.1.15,2013-05-02 04:22:00,
2013-05-02 00:28:00,47.7,46.1,30.41,NE,49,3.0,5.0,94,0.00,,,0.00,0,Wunderground v.1.15,2013-05-02 04:28:00,
2013-05-02 00:34:00,47.9,46.3,30.41,ENE,63,2.0,4.0,94,0.00,,,0.00,0,Wunderground v.1.15,2013-05-02 04:34:00,
2013-05-02 00:40:00,48.0,46.1,30.41,ENE,62,1.0,2.0,93,0.00,,,0.00,0,Wunderground v.1.15,2013-05-02 04:40:00,
2013-05-02 00:46:00,48.1,46.2,30.41,East,80,2.0,4.0,93,0.00,,,0.00,0,Wunderground v.1.15,2013-05-02 04:46:00,
2013-05-02 00:52:00,48.1,46.2,30.41,ENE,65,1.0,2.0,93,0.00,,,0.00,0,Wunderground v.1.15,2013-05-02 04:52:00,
2013-05-02 00:58:00,48.0,46.1,30.41,East,79,1.0,2.0,93,0.00,,,0.00,0,Wunderground v.1.15,2013-05-02 04:58:00,
2013-05-02 01:04:00,47.8,45.9,30.41,East,79,1.0,1.0,93,0.00,,,0.00,0,Wunderground v.1.15,2013-05-02 05:04:00,
2013-05-02 01:10:00,47.6,45.7,30.41,East,79,0.0,0.0,93,0.00,,,0.00,0,Wunderground v.1.15,2013-05-02 05:10:00,
2013-05-02 01:16:00,47.4,45.5,30.41,East,79,0.0,0.0,93,0.00,,,0.00,0,Wunderground v.1.15,2013-05-02 05:16:00,
2013-05-02 01:22:00,47.1,45.2,30.40,East,79,0.0,0.0,93,0.00,,,0.00,0,Wunderground v.1.15,2013-05-02 05:22:00,
2013-05-02 01:28:00,46.9,45.0,30.40,East,79,0.0,0.0,93,0.00,,,0.00,0,Wunderground v.1.15,2013-05-02 05:28:00,
2013-05-02 01:34:00,46.7,44.8,30.40,East,79,0.0,0.0,93,0.00,,,0.00,0,Wunderground v.1.15,2013-05-02 05:34:00,
2013-05-02 01:40:00,46.4,44.5,30.40,East,79,0.0,0.0,93,0.00,,,0.00,0,Wunderground v.1.15,2013-05-02 05:40:00,
2013-05-02 01:46:00,46.2,44.3,30.40,East,79,0.0,0.0,93,0.00,,,0.00,0,Wunderground v.1.15,2013-05-02 05:46:00,
2013-05-02 01:52:00,45.8,43.9,30.39,East,79,0.0,0.0,93,0.00,,,0.00,0,Wunderground v.1.15,2013-05-02 05:52:00,
2013-05-02 01:58:00,45.5,43.6,30.39,NE,50,0.0,1.0,93,0.00,,,0.00,0,Wunderground v.1.15,2013-05-02 05:58:00,
2013-05-02 02:04:00,45.4,43.5,30.39,NE,50,0.0,0.0,93,0.00,,,0.00,0,Wunderground v.1.15,2013-05-02 06:04:00,
2013-05-02 02:10:00,45.2,43.3,30.39,NE,50,0.0,0.0,93,0.00,,,0.00,0,Wunderground v.1.15,2013-05-02 06:10:00,
2013-05-02 02:16:00,45.0,43.1,30.39,NE,50,0.0,0.0,93,0.00,,,0.00,0,Wunderground v.1.15,2013-05-02 06:16:00,
2013-05-02 02:22:00,44.8,42.9,30.38,NE,50,0.0,0.0,93,0.00,,,0.00,0,Wunderground v.1.15,2013-05-02 06:22:00,
2013-05-02 02:28:00,44.6,42.7,30.38,NE,50,0.0,0.0,93,0.00,,,0.00,0,Wunderground v.1.15,2013-05-02 06:28:00,
2013-05-02 02:34:00,44.4,42.5,30.39,NE,50,0.0,0.0,93,0.00,,,0.00,0,Wunderground v.1.15,2013-05-02 06:34:00,
2013-05-02 02:40:00,44.3,42.4,30.38,NE,50,0.0,0.0,93,0.00,,,0.00,0,Wunderground v.1.15,2013-05-02 06:40:00,
2013-05-02 02:46:00,44.1,42.2,30.38,NE,50,0.0,0.0,93,0.00,,,0.00,0,Wunderground v.1.15,2013-05-02 06:46:00,
2013-05-02 02:52:00,43.8,41.9,30.38,NE,50,0.0,0.0,93,0.00,,,0.00,0,Wunderground v.1.15,2013-05-02 06:52:00,
2013-05-02 02:58:00,43.6,41.7,30.38,NE,50,0.0,0.0,93,0.00,,,0.00,0,Wunderground v.1.15,2013-05-02 06:58:00,
2013-05-02 03:04:00,43.4,41.5,30.39,NE,50,0.0,0.0,93,0.00,,,0.00,0,Wunderground v.1.15,2013-05-02 07:04:00,
2013-05-02 03:10:00,43.0,41.1,30.39,NE,50,0.0,0.0,93,0.00,,,0.00,0,Wunderground v.1.15,2013-05-02 07:10:00,
2013-05-02 03:16:00,42.8,40.9,30.39,NE,50,0.0,0.0,93,0.00,,,0.00,0,Wunderground v.1.15,2013-05-02 07:16:00,
2013-05-02 03:22:00,42.7,40.8,30.39,NE,50,0.0,0.0,93,0.00,,,0.00,0,Wunderground v.1.15,2013-05-02 07:22:00,
2013-05-02 03:28:00,42.5,40.6,30.40,NE,50,0.0,0.0,93,0.00,,,0.00,0,Wunderground v.1.15,2013-05-02 07:28:00,
2013-05-02 03:34:00,42.4,40.5,30.40,NE,50,0.0,0.0,93,0.00,,,0.00,0,Wunderground v.1.15,2013-05-02 07:34:00,
2013-05-02 03:40:00,42.2,40.6,30.39,NE,50,0.0,0.0,94,0.00,,,0.00,0,Wunderground v.1.15,2013-05-02 07:40:00,
2013-05-02 03:46:00,42.1,40.5,30.39,NE,50,0.0,0.0,94,0.00,,,0.00,0,Wunderground v.1.15,2013-05-02 07:46:00,
2013-05-02 03:52:00,42.0,40.4,30.39,NE,50,0.0,0.0,94,0.00,,,0.00,0,Wunderground v.1.15,2013-05-02 07:52:00,
2013-05-02 03:58:00,42.0,40.4,30.39,NE,50,0.0,0.0,94,0.00,,,0.00,0,Wunderground v.1.15,2013-05-02 07:58:00,
2013-05-02 04:04:00,42.0,40.4,30.39,NE,50,0.0,0.0,94,0.00,,,0.00,0,Wunderground v.1.15,2013-05-02 08:04:00,
2013-05-02 04:10:00,42.0,40.4,30.39,NE,50,0.0,0.0,94,0.00,,,0.00,0,Wunderground v.1.15,2013-05-02 08:10:00,
2013-05-02 04:16:00,41.9,40.3,30.40,NE,50,0.0,0.0,94,0.00,,,0.00,0,Wunderground v.1.15,2013-05-02 08:16:00,
2013-05-02 04:22:00,41.9,40.3,30.39,NE,50,0.0,0.0,94,0.00,,,0.00,0,Wunderground v.1.15,2013-05-02 08:22:00,
2013-05-02 04:28:00,41.8,40.2,30.39,NE,50,0.0,0.0,94,0.00,,,0.00,0,Wunderground v.1.15,2013-05-02 08:28:00,
2013-05-02 04:34:00,41.7,40.1,30.39,NE,50,0.0,0.0,94,0.00,,,0.00,0,Wunderground v.1.15,2013-05-02 08:34:00,
2013-05-02 04:40:00,41.5,39.9,30.39,NE,50,0.0,1.0,94,0.00,,,0.00,0,Wunderground v.1.15,2013-05-02 08:40:00,
2013-05-02 04:46:00,41.3,40.0,30.39,NE,50,1.0,1.0,95,0.00,,,0.00,0,Wunderground v.1.15,2013-05-02 08:46:00,
2013-05-02 04:52:00,41.2,39.9,30.39,NE,50,0.0,1.0,95,0.00,,,0.00,0,Wunderground v.1.15,2013-05-02 08:52:00,
2013-05-02 04:58:00,41.2,39.9,30.39,NE,38,1.0,5.0,95,0.00,,,0.00,0,Wunderground v.1.15,2013-05-02 08:58:00,
2013-05-02 05:04:00,41.2,39.9,30.39,NE,46,1.0,1.0,95,0.00,,,0.00,0,Wunderground v.1.15,2013-05-02 09:04:00,
2013-05-02 05:10:00,41.3,40.0,30.39,NNE,26,1.0,1.0,95,0.00,,,0.00,0,Wunderground v.1.15,2013-05-02 09:10:00,
2013-05-02 05:16:00,41.4,40.1,30.40,NNE,26,1.0,3.0,95,0.00,,,0.00,0,Wunderground v.1.15,2013-05-02 09:16:00,
2013-05-02 05:22:00,41.4,40.1,30.40,NNE,32,1.0,2.0,95,0.00,,,0.00,0,Wunderground v.1.15,2013-05-02 09:22:00,
2013-05-02 05:28:00,41.4,40.1,30.39,ENE,61,1.0,4.0,95,0.00,,,0.00,0,Wunderground v.1.15,2013-05-02 09:28:00,
2013-05-02 05:34:00,41.4,40.1,30.39,ENE,74,1.0,1.0,95,0.00,,,0.00,0,Wunderground v.1.15,2013-05-02 09:34:00,
2013-05-02 05:40:00,41.4,40.1,30.40,NE,43,1.0,1.0,95,0.00,,,0.00,0,Wunderground v.1.15,2013-05-02 09:40:00,
2013-05-02 05:46:00,41.3,40.0,30.40,NE,43,0.0,1.0,95,0.00,,,0.00,0,Wunderground v.1.15,2013-05-02 09:46:00,
2013-05-02 05:52:00,41.3,40.0,30.39,NE,43,1.0,1.0,95,0.00,,,0.00,0,Wunderground v.1.15,2013-05-02 09:52:00,
2013-05-02 05:58:00,41.3,40.2,30.40,NE,43,1.0,2.0,96,0.00,,,0.00,0,Wunderground v.1.15,2013-05-02 09:58:00,
2013-05-02 06:04:00,41.3,40.2,30.40,NE,55,1.0,2.0,96,0.00,,,0.00,5,Wunderground v.1.15,2013-05-02 10:04:00,
2013-05-02 06:10:00,41.3,40.2,30.40,NE,55,1.0,1.0,96,0.00,,,0.00,7,Wunderground v.1.15,2013-05-02 10:10:00,
2013-05-02 06:16:00,41.2,40.1,30.40,NE,55,0.0,2.0,96,0.00,,,0.00,11,Wunderground v.1.15,2013-05-02 10:16:00,
2013-05-02 06:22:00,41.1,39.8,30.40,NE,55,1.0,1.0,95,0.00,,,0.00,12,Wunderground v.1.15,2013-05-02 10:22:00,
2013-05-02 06:28:00,41.1,39.8,30.40,NE,55,1.0,1.0,95,0.00,,,0.00,16,Wunderground v.1.15,2013-05-02 10:28:00,
2013-05-02 06:34:00,41.0,39.7,30.41,NE,55,0.0,1.0,95,0.00,,,0.00,19,Wunderground v.1.15,2013-05-02 10:34:00,
2013-05-02 06:40:00,41.1,40.0,30.41,NE,55,0.0,0.0,96,0.00,,,0.00,21,Wunderground v.1.15,2013-05-02 10:40:00,
2013-05-02 06:46:00,41.3,40.2,30.41,NE,55,0.0,1.0,96,0.00,,,0.00,25,Wunderground v.1.15,2013-05-02 10:46:00,
2013-05-02 06:52:00,41.6,40.5,30.41,NE,56,1.0,1.0,96,0.00,,,0.00,26,Wunderground v.1.15,2013-05-02 10:52:00,
2013-05-02 06:58:00,41.9,40.8,30.41,NE,56,1.0,1.0,96,0.00,,,0.00,28,Wunderground v.1.15,2013-05-02 10:58:00,
2013-05-02 07:04:00,42.4,41.3,30.41,NE,55,1.0,4.0,96,0.00,,,0.00,30,Wunderground v.1.15,2013-05-02 11:04:00,
2013-05-02 07:10:00,42.8,41.7,30.41,NE,54,1.0,1.0,96,0.00,,,0.00,32,Wunderground v.1.15,2013-05-02 11:10:00,
2013-05-02 07:16:00,43.1,42.0,30.41,NE,54,1.0,2.0,96,0.00,,,0.00,35,Wunderground v.1.15,2013-05-02 11:16:00,
2013-05-02 07:22:00,43.5,42.4,30.41,ENE,62,1.0,5.0,96,0.00,,,0.00,37,Wunderground v.1.15,2013-05-02 11:22:00,
2013-05-02 07:28:00,43.9,42.8,30.41,East,94,2.0,5.0,96,0.00,,,0.00,40,Wunderground v.1.15,2013-05-02 11:28:00,
2013-05-02 07:34:00,44.3,43.2,30.41,NE,42,3.0,5.0,96,0.00,,,0.00,42,Wunderground v.1.15,2013-05-02 11:34:00,
2013-05-02 07:40:00,44.7,43.6,30.42,NE,40,2.0,2.0,96,0.00,,,0.00,46,Wunderground v.1.15,2013-05-02 11:40:00,
2013-05-02 07:46:00,45.1,44.0,30.42,NE,46,3.0,4.0,96,0.00,,,0.00,49,Wunderground v.1.15,2013-05-02 11:46:00,
2013-05-02 07:52:00,45.5,44.4,30.42,NE,37,3.0,3.0,96,0.00,,,0.00,116,Wunderground v.1.15,2013-05-02 11:52:00,
2013-05-02 07:58:00,46.0,45.2,30.42,NNE,31,2.0,5.0,97,0.00,,,0.00,279,Wunderground v.1.15,2013-05-02 11:58:00,
2013-05-02 08:04:00,46.6,45.8,30.42,ENE,57,2.0,4.0,97,0.00,,,0.00,320,Wunderground v.1.15,2013-05-02 12:04:00,
2013-05-02 08:10:00,47.2,46.4,30.42,NE,49,3.0,6.0,97,0.00,,,0.00,338,Wunderground v.1.15,2013-05-02 12:10:00,
2013-05-02 08:16:00,47.8,46.7,30.43,NNE,29,4.0,6.0,96,0.00,,,0.00,357,Wunderground v.1.15,2013-05-02 12:16:00,
2013-05-02 08:22:00,48.5,47.4,30.42,NNE,22,3.0,7.0,96,0.00,,,0.00,380,Wunderground v.1.15,2013-05-02 12:22:00,
2013-05-02 08:28:00,49.1,48.0,30.42,NE,46,3.0,7.0,96,0.00,,,0.00,401,Wunderground v.1.15,2013-05-02 12:28:00,
2013-05-02 08:34:00,49.8,48.1,30.42,NE,53,3.0,6.0,94,0.00,,,0.00,420,Wunderground v.1.15,2013-05-02 12:34:00,
2013-05-02 08:40:00,50.5,48.3,30.42,NE,44,5.0,6.0,92,0.00,,,0.00,441,Wunderground v.1.15,2013-05-02 12:40:00,
2013-05-02 08:46:00,51.3,48.2,30.42,NNE,32,4.0,7.0,89,0.00,,,0.00,475,Wunderground v.1.15,2013-05-02 12:46:00,
2013-05-02 08:52:00,52.2,48.8,30.42,East,85,2.0,3.0,88,0.00,,,0.00,499,Wunderground v.1.15,2013-05-02 12:52:00,
2013-05-02 08:58:00,53.0,48.6,30.42,WNW,292,1.0,3.0,85,0.00,,,0.00,520,Wunderground v.1.15,2013-05-02 12:58:00,
2013-05-02 09:04:00,53.9,48.5,30.42,NE,56,1.0,6.0,82,0.00,,,0.00,540,Wunderground v.1.15,2013-05-02 13:04:00,
2013-05-02 09:10:00,54.6,48.6,30.42,SSE,158,2.0,2.0,80,0.00,,,0.00,559,Wunderground v.1.15,2013-05-02 13:10:00,
2013-05-02 09:16:00,55.4,48.7,30.42,ENE,58,2.0,3.0,78,0.00,,,0.00,577,Wunderground v.1.15,2013-05-02 13:16:00,
2013-05-02 09:22:00,56.2,48.7,30.42,SE,130,1.0,1.0,76,0.00,,,0.00,594,Wunderground v.1.15,2013-05-02 13:22:00,
2013-05-02 09:28:00,56.9,49.1,30.42,ENE,63,1.0,6.0,75,0.00,,,0.00,612,Wunderground v.1.15,2013-05-02 13:28:00,
2013-05-02 09:34:00,57.2,48.3,30.42,NE,36,3.0,7.0,72,0.00,,,0.00,624,Wunderground v.1.15,2013-05-02 13:34:00,
2013-05-02 09:40:00,57.4,48.4,30.43,East,80,4.0,4.0,72,0.00,,,0.00,643,Wunderground v.1.15,2013-05-02 13:40:00,
2013-05-02 09:46:00,57.7,48.0,30.43,NE,40,3.0,5.0,70,0.00,,,0.00,659,Wunderground v.1.15,2013-05-02 13:46:00,
2013-05-02 09:52:00,57.6,47.9,30.43,ENE,71,5.0,5.0,70,0.00,,,0.00,675,Wunderground v.1.15,2013-05-02 13:52:00,
2013-05-02 09:58:00,58.2,48.8,30.42,North,5,3.0,5.0,71,0.00,,,0.00,693,Wunderground v.1.15,2013-05-02 13:58:00,
2013-05-02 10:04:00,59.1,48.9,30.42,SE,133,1.0,2.0,69,0.00,,,0.00,707,Wunderground v.1.15,2013-05-02 14:04:00,
2013-05-02 10:10:00,60.1,48.3,30.42,South,188,1.0,2.0,65,0.00,,,0.00,722,Wunderground v.1.15,2013-05-02 14:10:00,
2013-05-02 10:16:00,60.9,49.1,30.42,NE,42,1.0,2.0,65,0.00,,,0.00,693,Wunderground v.1.15,2013-05-02 14:16:00,
2013-05-02 10:22:00,61.2,48.5,30.43,ENE,74,1.0,2.0,63,0.00,,,0.00,666,Wunderground v.1.15,2013-05-02 14:22:00,
2013-05-02 10:28:00,61.4,47.4,30.43,SSW,199,1.0,2.0,60,0.00,,,0.00,693,Wunderground v.1.15,2013-05-02 14:28:00,
2013-05-02 10:34:00,61.9,47.9,30.43,SSW,193,1.0,1.0,60,0.00,,,0.00,715,Wunderground v.1.15,2013-05-02 14:34:00,
2013-05-02 10:40:00,62.3,46.9,30.42,NE,35,1.0,7.0,57,0.00,,,0.00,795,Wunderground v.1.15,2013-05-02 14:40:00,
2013-05-02 10:46:00,62.7,47.2,30.42,SSE,147,1.0,7.0,57,0.00,,,0.00,805,Wunderground v.1.15,2013-05-02 14:46:00,
2013-05-02 10:52:00,62.8,46.4,30.42,SE,138,2.0,2.0,55,0.00,,,0.00,816,Wunderground v.1.15,2013-05-02 14:52:00,
2013-05-02 10:58:00,63.0,46.1,30.42,SE,138,2.0,2.0,54,0.00,,,0.00,828,Wunderground v.1.15,2013-05-02 14:58:00,
2013-05-02 11:04:00,63.2,45.8,30.43,West,276,1.0,4.0,53,0.00,,,0.00,837,Wunderground v.1.15,2013-05-02 15:04:00,
2013-05-02 11:10:00,62.8,45.4,30.42,SSW,213,2.0,6.0,53,0.00,,,0.00,763,Wunderground v.1.15,2013-05-02 15:10:00,
2013-05-02 11:16:00,62.5,44.6,30.42,ENE,69,3.0,7.0,52,0.00,,,0.00,770,Wunderground v.1.15,2013-05-02 15:16:00,
2013-05-02 11:22:00,62.7,44.3,30.43,ENE,71,2.0,3.0,51,0.00,,,0.00,726,Wunderground v.1.15,2013-05-02 15:22:00,
2013-05-02 11:28:00,63.6,46.1,30.42,East,90,1.0,3.0,53,0.00,,,0.00,874,Wunderground v.1.15,2013-05-02 15:28:00,
2013-05-02 11:34:00,64.1,45.1,30.42,ESE,123,1.0,3.0,50,0.00,,,0.00,884,Wunderground v.1.15,2013-05-02 15:34:00,
2013-05-02 11:40:00,63.7,45.7,30.43,NNE,25,2.0,6.0,52,0.00,,,0.00,889,Wunderground v.1.15,2013-05-02 15:40:00,
2013-05-02 11:46:00,63.4,44.9,30.42,NE,55,3.0,7.0,51,0.00,,,0.00,896,Wunderground v.1.15,2013-05-02 15:46:00,
2013-05-02 11:52:00,63.2,44.2,30.42,ENE,59,3.0,3.0,50,0.00,,,0.00,900,Wunderground v.1.15,2013-05-02 15:52:00,
2013-05-02 11:58:00,64.1,45.1,30.42,East,88,2.0,3.0,50,0.00,,,0.00,909,Wunderground v.1.15,2013-05-02 15:58:00,
2013-05-02 12:04:00,64.3,45.3,30.42,SSW,209,2.0,6.0,50,0.00,,,0.00,912,Wunderground v.1.15,2013-05-02 16:04:00,
2013-05-02 12:10:00,63.5,45.0,30.42,SE,130,3.0,3.0,51,0.00,,,0.00,912,Wunderground v.1.15,2013-05-02 16:10:00,
2013-05-02 12:16:00,63.5,45.6,30.42,ENE,77,3.0,7.0,52,0.00,,,0.00,918,Wunderground v.1.15,2013-05-02 16:16:00,
2013-05-02 12:22:00,64.0,45.0,30.42,ENE,69,2.0,6.0,50,0.00,,,0.00,921,Wunderground v.1.15,2013-05-02 16:22:00,
2013-05-02 12:28:00,63.5,46.1,30.41,SSW,198,3.0,10.0,53,0.00,,,0.00,923,Wunderground v.1.15,2013-05-02 16:28:00,
2013-05-02 12:34:00,64.0,45.5,30.42,East,100,3.0,3.0,51,0.00,,,0.00,925,Wunderground v.1.15,2013-05-02 16:34:00,
2013-05-02 12:40:00,64.2,45.7,30.41,NNE,22,3.0,7.0,51,0.00,,,0.00,928,Wunderground v.1.15,2013-05-02 16:40:00,
2013-05-02 12:46:00,64.2,47.2,30.41,NE,53,4.0,7.0,54,0.00,,,0.00,921,Wunderground v.1.15,2013-05-02 16:46:00,
2013-05-02 12:52:00,64.0,45.5,30.41,North,360,4.0,11.0,51,0.00,,,0.00,932,Wunderground v.1.15,2013-05-02 16:52:00,
2013-05-02 12:58:00,63.6,44.6,30.41,ENE,60,5.0,11.0,50,0.00,,,0.00,926,Wunderground v.1.15,2013-05-02 16:58:00,
2013-05-02 13:04:00,64.6,46.6,30.41,NE,41,3.0,5.0,52,0.00,,,0.00,928,Wunderground v.1.15,2013-05-02 17:04:00,
2013-05-02 13:10:00,65.0,45.4,30.41,NNE,26,2.0,7.0,49,0.00,,,0.00,925,Wunderground v.1.15,2013-05-02 17:10:00,
2013-05-02 13:16:00,64.8,45.7,30.41,SSE,161,3.0,8.0,50,0.00,,,0.00,923,Wunderground v.1.15,2013-05-02 17:16:00,
2013-05-02 13:22:00,65.5,46.4,30.41,NE,34,2.0,6.0,50,0.00,,,0.00,919,Wunderground v.1.15,2013-05-02 17:22:00,
2013-05-02 13:28:00,65.3,45.1,30.41,NE,36,3.0,6.0,48,0.00,,,0.00,918,Wunderground v.1.15,2013-05-02 17:28:00,
2013-05-02 13:34:00,65.2,46.1,30.41,ESE,114,3.0,5.0,50,0.00,,,0.00,912,Wunderground v.1.15,2013-05-02 17:34:00,
2013-05-02 13:40:00,65.7,44.3,30.41,ESE,119,3.0,3.0,46,0.00,,,0.00,907,Wunderground v.1.15,2013-05-02 17:40:00,
2013-05-02 13:46:00,65.9,46.2,30.40,ENE,65,2.0,3.0,49,0.00,,,0.00,904,Wunderground v.1.15,2013-05-02 17:46:00,
2013-05-02 13:52:00,65.6,45.9,30.40,ENE,68,3.0,5.0,49,0.00,,,0.00,893,Wunderground v.1.15,2013-05-02 17:52:00,
2013-05-02 13:58:00,66.1,46.9,30.40,ESE,117,2.0,5.0,50,0.00,,,0.00,891,Wunderground v.1.15,2013-05-02 17:58:00,
2013-05-02 14:04:00,66.2,45.4,30.40,ENE,59,1.0,1.0,47,0.00,,,0.00,881,Wunderground v.1.15,2013-05-02 18:04:00,
2013-05-02 14:10:00,66.3,45.5,30.40,East,87,2.0,2.0,47,0.00,,,0.00,875,Wunderground v.1.15,2013-05-02 18:10:00,
2013-05-02 14:16:00,66.6,46.3,30.40,South,189,2.0,2.0,48,0.00,,,0.00,870,Wunderground v.1.15,2013-05-02 18:16:00,
2013-05-02 14:22:00,66.5,45.6,30.40,South,185,2.0,3.0,47,0.00,,,0.00,858,Wunderground v.1.15,2013-05-02 18:22:00,
2013-05-02 14:28:00,66.9,45.4,30.39,SSE,155,2.0,3.0,46,0.00,,,0.00,851,Wunderground v.1.15,2013-05-02 18:28:00,
2013-05-02 14:34:00,66.9,45.4,30.39,SE,130,1.0,2.0,46,0.00,,,0.00,844,Wunderground v.1.15,2013-05-02 18:34:00,
2013-05-02 14:40:00,66.8,45.3,30.39,SW,217,2.0,2.0,46,0.00,,,0.00,831,Wunderground v.1.15,2013-05-02 18:40:00,
2013-05-02 14:46:00,67.0,45.5,30.39,WNW,293,1.0,2.0,46,0.00,,,0.00,824,Wunderground v.1.15,2013-05-02 18:46:00,
2013-05-02 14:52:00,66.8,45.3,30.39,NE,50,2.0,8.0,46,0.00,,,0.00,812,Wunderground v.1.15,2013-05-02 18:52:00,
2013-05-02 14:58:00,66.2,45.4,30.39,SSE,165,3.0,8.0,47,0.00,,,0.00,800,Wunderground v.1.15,2013-05-02 18:58:00,
2013-05-02 15:04:00,66.4,46.1,30.39,SE,146,2.0,4.0,48,0.00,,,0.00,791,Wunderground v.1.15,2013-05-02 19:04:00,
2013-05-02 15:10:00,66.7,46.9,30.39,NE,49,2.0,4.0,49,0.00,,,0.00,777,Wunderground v.1.15,2013-05-02 19:10:00,
2013-05-02 15:16:00,66.6,46.3,30.39,East,100,2.0,6.0,48,0.00,,,0.00,768,Wunderground v.1.15,2013-05-02 19:16:00,
2013-05-02 15:22:00,66.4,45.0,30.38,East,86,3.0,5.0,46,0.00,,,0.00,754,Wunderground v.1.15,2013-05-02 19:22:00,
2013-05-02 15:28:00,66.1,45.3,30.38,East,82,3.0,5.0,47,0.00,,,0.00,738,Wunderground v.1.15,2013-05-02 19:28:00,
2013-05-02 15:34:00,66.1,45.3,30.38,ENE,59,2.0,3.0,47,0.00,,,0.00,726,Wunderground v.1.15,2013-05-02 19:34:00,
2013-05-02 15:40:00,65.9,44.5,30.38,SE,146,2.0,2.0,46,0.00,,,0.00,715,Wunderground v.1.15,2013-05-02 19:40:00,
2013-05-02 15:46:00,65.8,45.0,30.38,SSW,199,2.0,3.0,47,0.00,,,0.00,698,Wunderground v.1.15,2013-05-02 19:46:00,
2013-05-02 15:52:00,65.7,44.9,30.38,NNE,32,2.0,6.0,47,0.00,,,0.00,682,Wunderground v.1.15,2013-05-02 19:52:00,
2013-05-02 15:58:00,65.7,44.3,30.38,ENE,57,2.0,6.0,46,0.00,,,0.00,670,Wunderground v.1.15,2013-05-02 19:58:00,
2013-05-02 16:04:00,65.8,45.0,30.38,ESE,117,2.0,4.0,47,0.00,,,0.00,652,Wunderground v.1.15,2013-05-02 20:04:00,
2013-05-02 16:10:00,66.2,45.4,30.37,SE,124,1.0,2.0,47,0.00,,,0.00,635,Wunderground v.1.15,2013-05-02 20:10:00,
2013-05-02 16:16:00,66.3,44.3,30.37,NE,46,2.0,2.0,45,0.00,,,0.00,622,Wunderground v.1.15,2013-05-02 20:16:00,
2013-05-02 16:22:00,66.4,44.4,30.37,ENE,78,1.0,2.0,45,0.00,,,0.00,603,Wunderground v.1.15,2013-05-02 20:22:00,
2013-05-02 16:28:00,66.4,44.4,30.37,SE,142,1.0,6.0,45,0.00,,,0.00,587,Wunderground v.1.15,2013-05-02 20:28:00,
2013-05-02 16:34:00,66.0,44.0,30.37,East,80,2.0,6.0,45,0.00,,,0.00,570,Wunderground v.1.15,2013-05-02 20:34:00,
2013-05-02 16:40:00,65.8,43.9,30.36,NE,36,2.0,8.0,45,0.00,,,0.00,552,Wunderground v.1.15,2013-05-02 20:40:00,
2013-05-02 16:46:00,65.5,45.3,30.37,NE,55,2.0,8.0,48,0.00,,,0.00,533,Wunderground v.1.15,2013-05-02 20:46:00,
2013-05-02 16:52:00,65.5,44.2,30.36,South,176,1.0,2.0,46,0.00,,,0.00,517,Wunderground v.1.15,2013-05-02 20:52:00,
2013-05-02 16:58:00,65.6,44.8,30.36,SSE,163,2.0,2.0,47,0.00,,,0.00,497,Wunderground v.1.15,2013-05-02 20:58:00,
2013-05-02 17:04:00,65.7,44.3,30.36,NE,54,1.0,2.0,46,0.00,,,0.00,480,Wunderground v.1.15,2013-05-02 21:04:00,
2013-05-02 17:10:00,65.4,44.1,30.36,ESE,120,1.0,1.0,46,0.00,,,0.00,461,Wunderground v.1.15,2013-05-02 21:10:00,
2013-05-02 17:16:00,65.4,44.1,30.36,NNE,17,1.0,1.0,46,0.00,,,0.00,441,Wunderground v.1.15,2013-05-02 21:16:00,
2013-05-02 17:22:00,65.3,43.4,30.35,East,98,1.0,5.0,45,0.00,,,0.00,424,Wunderground v.1.15,2013-05-02 21:22:00,
2013-05-02 17:28:00,64.8,43.5,30.35,South,186,1.0,5.0,46,0.00,,,0.00,404,Wunderground v.1.15,2013-05-02 21:28:00,
2013-05-02 17:34:00,64.3,43.6,30.35,SSE,152,1.0,1.0,47,0.00,,,0.00,139,Wunderground v.1.15,2013-05-02 21:34:00,
2013-05-02 17:40:00,63.8,43.7,30.35,North,9,1.0,1.0,48,0.00,,,0.00,72,Wunderground v.1.15,2013-05-02 21:40:00,
2013-05-02 17:46:00,63.5,43.4,30.35,SW,224,1.0,4.0,48,0.00,,,0.00,77,Wunderground v.1.15,2013-05-02 21:46:00,
2013-05-02 17:52:00,63.1,44.2,30.35,ESE,107,2.0,2.0,50,0.00,,,0.00,70,Wunderground v.1.15,2013-05-02 21:52:00,
2013-05-02 17:58:00,62.7,43.3,30.35,ESE,113,1.0,2.0,49,0.00,,,0.00,95,Wunderground v.1.15,2013-05-02 21:58:00,
2013-05-02 18:04:00,62.5,44.1,30.35,NNE,20,1.0,2.0,51,0.00,,,0.00,77,Wunderground v.1.15,2013-05-02 22:04:00,
2013-05-02 18:10:00,62.2,43.3,30.34,NE,45,1.0,3.0,50,0.00,,,0.00,65,Wunderground v.1.15,2013-05-02 22:10:00,
2013-05-02 18:16:00,62.0,43.7,30.34,SW,218,1.0,3.0,51,0.00,,,0.00,65,Wunderground v.1.15,2013-05-02 22:16:00,
2013-05-02 18:22:00,61.8,44.0,30.34,ENE,70,1.0,5.0,52,0.00,,,0.00,171,Wunderground v.1.15,2013-05-02 22:22:00,
2013-05-02 18:28:00,61.6,43.8,30.34,NE,49,1.0,5.0,52,0.00,,,0.00,193,Wunderground v.1.15,2013-05-02 22:28:00,
2013-05-02 18:34:00,61.4,44.6,30.34,ENE,71,1.0,1.0,54,0.00,,,0.00,98,Wunderground v.1.15,2013-05-02 22:34:00,
2013-05-02 18:40:00,61.2,44.4,30.34,South,184,0.0,1.0,54,0.00,,,0.00,74,Wunderground v.1.15,2013-05-02 22:40:00,
2013-05-02 18:46:00,60.7,43.5,30.34,SW,228,0.0,1.0,53,0.00,,,0.00,97,Wunderground v.1.15,2013-05-02 22:46:00,
2013-05-02 18:52:00,60.5,42.3,30.34,South,173,0.0,0.0,51,0.00,,,0.00,35,Wunderground v.1.15,2013-05-02 22:52:00,
2013-05-02 18:58:00,60.2,42.0,30.34,SSE,164,0.0,0.0,51,0.00,,,0.00,69,Wunderground v.1.15,2013-05-02 22:58:00,
2013-05-02 19:04:00,59.9,41.7,30.34,SE,128,0.0,0.0,51,0.00,,,0.00,54,Wunderground v.1.15,2013-05-02 23:04:00,
2013-05-02 19:10:00,59.7,42.5,30.34,SE,127,0.0,0.0,53,0.00,,,0.00,46,Wunderground v.1.15,2013-05-02 23:10:00,
2013-05-02 19:16:00,59.3,42.2,30.34,ESE,119,0.0,1.0,53,0.00,,,0.00,26,Wunderground v.1.15,2013-05-02 23:16:00,
2013-05-02 19:22:00,59.0,42.8,30.34,ESE,119,0.0,0.0,55,0.00,,,0.00,25,Wunderground v.1.15,2013-05-02 23:22:00,
2013-05-02 19:28:00,58.9,43.2,30.34,ESE,119,0.0,0.0,56,0.00,,,0.00,18,Wunderground v.1.15,2013-05-02 23:28:00,
2013-05-02 19:34:00,58.6,43.4,30.34,ESE,119,0.0,0.0,57,0.00,,,0.00,16,Wunderground v.1.15,2013-05-02 23:34:00,
2013-05-02 19:40:00,58.2,43.5,30.33,ESE,119,0.0,0.0,58,0.00,,,0.00,12,Wunderground v.1.15,2013-05-02 23:40:00,
2013-05-02 19:46:00,57.6,43.4,30.33,ESE,119,0.0,0.0,59,0.00,,,0.00,7,Wunderground v.1.15,2013-05-02 23:46:00,
2013-05-02 19:52:00,57.1,43.3,30.34,ESE,119,0.0,0.0,60,0.00,,,0.00,0,Wunderground v.1.15,2013-05-02 23:52:00,
2013-05-02 19:58:00,56.7,43.0,30.34,ESE,119,0.0,0.0,60,0.00,,,0.00,0,Wunderground v.1.15,2013-05-02 23:58:00,
2013-05-02 20:04:00,56.4,43.1,30.34,ESE,119,0.0,0.0,61,0.00,,,0.00,0,Wunderground v.1.15,2013-05-03 00:04:00,
2013-05-02 20:10:00,56.1,43.3,30.33,ESE,119,0.0,0.0,62,0.00,,,0.00,0,Wunderground v.1.15,2013-05-03 00:10:00,
2013-05-02 20:16:00,55.6,43.2,30.33,ESE,119,0.0,0.0,63,0.00,,,0.00,0,Wunderground v.1.15,2013-05-03 00:16:00,
2013-05-02 20:22:00,55.2,43.6,30.33,ESE,119,0.0,0.0,65,0.00,,,0.00,0,Wunderground v.1.15,2013-05-03 00:22:00,
2013-05-02 20:28:00,54.7,43.6,30.33,ESE,119,0.0,0.0,66,0.00,,,0.00,0,Wunderground v.1.15,2013-05-03 00:28:00,
2013-05-02 20:34:00,54.0,43.3,30.33,ESE,119,0.0,0.0,67,0.00,,,0.00,0,Wunderground v.1.15,2013-05-03 00:34:00,
2013-05-02 20:40:00,53.5,43.2,30.33,ESE,119,0.0,0.0,68,0.00,,,0.00,0,Wunderground v.1.15,2013-05-03 00:40:00,
2013-05-02 20:46:00,53.0,43.1,30.33,ESE,119,0.0,0.0,69,0.00,,,0.00,0,Wunderground v.1.15,2013-05-03 00:46:00,
2013-05-02 20:52:00,52.7,42.8,30.33,ESE,119,0.0,0.0,69,0.00,,,0.00,0,Wunderground v.1.15,2013-05-03 00:52:00,
2013-05-02 20:58:00,52.4,42.5,30.33,ESE,119,0.0,0.0,69,0.00,,,0.00,0,Wunderground v.1.15,2013-05-03 00:58:00,
2013-05-02 21:04:00,52.1,42.2,30.33,ESE,119,0.0,0.0,69,0.00,,,0.00,0,Wunderground v.1.15,2013-05-03 01:04:00,
2013-05-02 21:10:00,51.8,42.3,30.33,ESE,119,0.0,0.0,70,0.00,,,0.00,0,Wunderground v.1.15,2013-05-03 01:10:00,
2013-05-02 21:16:00,51.4,43.0,30.33,ESE,119,0.0,0.0,73,0.00,,,0.00,0,Wunderground v.1.15,2013-05-03 01:16:00,
2013-05-02 21:22:00,51.1,42.7,30.33,ESE,119,0.0,0.0,73,0.00,,,0.00,0,Wunderground v.1.15,2013-05-03 01:22:00,
2013-05-02 21:28:00,50.9,42.2,30.33,ESE,119,0.0,0.0,72,0.00,,,0.00,0,Wunderground v.1.15,2013-05-03 01:28:00,
2013-05-02 21:34:00,50.6,42.6,30.33,ESE,119,0.0,0.0,74,0.00,,,0.00,0,Wunderground v.1.15,2013-05-03 01:34:00,
2013-05-02 21:40:00,50.1,42.8,30.33,ESE,119,0.0,0.0,76,0.00,,,0.00,0,Wunderground v.1.15,2013-05-03 01:40:00,
2013-05-02 21:46:00,49.7,42.8,30.32,ESE,119,0.0,0.0,77,0.00,,,0.00,0,Wunderground v.1.15,2013-05-03 01:46:00,
2013-05-02 21:52:00,49.4,42.5,30.32,ESE,119,0.0,0.0,77,0.00,,,0.00,0,Wunderground v.1.15,2013-05-03 01:52:00,
2013-05-02 21:58:00,49.2,42.6,30.32,ESE,119,0.0,0.0,78,0.00,,,0.00,0,Wunderground v.1.15,2013-05-03 01:58:00,
2013-05-02 22:04:00,49.0,42.4,30.32,ESE,119,0.0,0.0,78,0.00,,,0.00,0,Wunderground v.1.15,2013-05-03 02:04:00,
2013-05-02 22:10:00,48.8,42.2,30.32,ESE,119,0.0,0.0,78,0.00,,,0.00,0,Wunderground v.1.15,2013-05-03 02:10:00,
2013-05-02 22:16:00,48.6,42.0,30.32,ESE,119,0.0,0.0,78,0.00,,,0.00,0,Wunderground v.1.15,2013-05-03 02:16:00,
2013-05-02 22:22:00,48.4,42.2,30.32,ESE,119,0.0,0.0,79,0.00,,,0.00,0,Wunderground v.1.15,2013-05-03 02:22:00,
2013-05-02 22:28:00,48.2,42.3,30.32,ESE,119,0.0,0.0,80,0.00,,,0.00,0,Wunderground v.1.15,2013-05-03 02:28:00,
2013-05-02 22:34:00,48.1,42.2,30.32,ESE,119,0.0,0.0,80,0.00,,,0.00,0,Wunderground v.1.15,2013-05-03 02:34:00,
2013-05-02 22:40:00,47.9,41.7,30.32,ESE,119,0.0,0.0,79,0.00,,,0.00,0,Wunderground v.1.15,2013-05-03 02:40:00,
2013-05-02 22:46:00,47.7,41.8,30.32,ESE,119,0.0,0.0,80,0.00,,,0.00,0,Wunderground v.1.15,2013-05-03 02:46:00,
2013-05-02 22:52:00,47.6,42.1,30.32,ESE,119,0.0,0.0,81,0.00,,,0.00,0,Wunderground v.1.15,2013-05-03 02:52:00,
2013-05-02 22:58:00,47.5,42.3,30.32,ESE,119,0.0,0.0,82,0.00,,,0.00,0,Wunderground v.1.15,2013-05-03 02:58:00,
2013-05-02 23:04:00,47.2,42.3,30.32,ESE,119,0.0,0.0,83,0.00,,,0.00,0,Wunderground v.1.15,2013-05-03 03:04:00,
2013-05-02 23:10:00,46.8,41.9,30.32,ESE,119,0.0,0.0,83,0.00,,,0.00,0,Wunderground v.1.15,2013-05-03 03:10:00,
2013-05-02 23:16:00,46.6,42.0,30.32,ESE,119,0.0,0.0,84,0.00,,,0.00,0,Wunderground v.1.15,2013-05-03 03:16:00,
2013-05-02 23:22:00,46.4,41.8,30.32,ESE,119,0.0,0.0,84,0.00,,,0.00,0,Wunderground v.1.15,2013-05-03 03:22:00,
2013-05-02 23:28:00,46.3,41.7,30.32,ESE,119,0.0,0.0,84,0.00,,,0.00,0,Wunderground v.1.15,2013-05-03 03:28:00,
2013-05-02 23:34:00,46.1,41.8,30.32,ESE,119,0.0,0.0,85,0.00,,,0.00,0,Wunderground v.1.15,2013-05-03 03:34:00,
2013-05-02 23:40:00,45.8,41.5,30.32,ESE,119,0.0,0.0,85,0.00,,,0.00,0,Wunderground v.1.15,2013-05-03 03:40:00,
2013-05-02 23:46:00,45.5,41.6,30.32,ESE,119,0.0,0.0,86,0.00,,,0.00,0,Wunderground v.1.15,2013-05-03 03:46:00,
2013-05-02 23:52:00,45.3,41.7,30.32,ESE,119,0.0,0.0,87,0.00,,,0.00,0,Wunderground v.1.15,2013-05-03 03:52:00,
2013-05-02 23:58:00,45.1,41.5,30.32,ESE,119,0.0,0.0,87,0.00,,,0.00,0,Wunderground v.1.15,2013-05-03 03:58:00,